Location: Anumalkud?ru
(16.4847°N, 80.6636°E)
Time: 11:01:30
(UTC+00:00)

Cosmos 1328 - Pass Details

Date: 11 April 2026
Orbit: 454 x 467 km, 82.5° (Epoch: 20 May)

Event Time Altitude Azimuth Distance (km) Brightness Sun altitude
Rises 13:49:32 0° 8° (N) 2,475 7.2 -14.4°
Reaches altitude 10° 13:51:44 10° 17° (NNE) 1,603 6.2 -14.9°
Maximum altitude 13:54:57 34° 84° (E) 772 4.1 -15.6°
Enters shadow 13:55:19 33° 99° (E) 789 4.0 -15.7°
